�������l�o���
Date,Time,MP-1(��Sv/h),MP-2(��Sv/h),MP-3(��Sv/h),MP-4(��Sv/h),MP-5(��Sv/h),MP-6(��Sv/h),MP-7(��Sv/h),MP-8(��Sv/h),����,����(m/s),���J
2021/04/28,00:00,0.648,0.967,0.601,1.188,0.843,0.375,0.662,0.619,��쐼,4.8,��
2021/04/28,00:10,0.647,0.966,0.603,1.191,0.846,0.376,0.664,0.618,��쐼,4.0,��
2021/04/28,00:20,0.647,0.966,0.599,1.191,0.843,0.376,0.662,0.618,��쐼,4.3,��
2021/04/28,00:30,0.648,0.967,0.601,1.190,0.844,0.375,0.663,0.619,��쐼,4.8,��
2021/04/28,00:40,0.647,0.964,0.601,1.191,0.843,0.375,0.663,0.618,��쐼,4.9,��
2021/04/28,00:50,0.648,0.966,0.599,1.190,0.842,0.376,0.661,0.619,��쐼,3.8,��
2021/04/28,01:00,0.647,0.964,0.600,1.190,0.845,0.376,0.660,0.617,��쐼,3.3,��
2021/04/28,01:10,0.647,0.966,0.600,1.190,0.843,0.376,0.662,0.618,�쐼,3.3,��
2021/04/28,01:20,0.648,0.964,0.599,1.191,0.842,0.375,0.662,0.617,��쐼,3.9,��
2021/04/28,01:30,0.648,0.964,0.603,1.190,0.843,0.375,0.661,0.617,��쐼,4.4,��
2021/04/28,01:40,0.648,0.964,0.600,1.190,0.845,0.375,0.660,0.616,��쐼,3.9,��
2021/04/28,01:50,0.648,0.966,0.600,1.191,0.845,0.376,0.661,0.618,��쐼,4.2,��
2021/04/28,02:00,0.648,0.964,0.601,1.189,0.844,0.375,0.661,0.619,�쐼,3.5,��
2021/04/28,02:10,0.647,0.965,0.600,1.188,0.846,0.376,0.662,0.617,�쐼,3.6,��
2021/04/28,02:20,0.649,0.965,0.599,1.188,0.845,0.376,0.662,0.618,�쐼,2.3,��
2021/04/28,02:30,0.647,0.965,0.602,1.192,0.843,0.375,0.661,0.618,�쐼,1.5,��
2021/04/28,02:40,0.647,0.963,0.600,1.189,0.845,0.376,0.662,0.617,�쐼,1.2,��
2021/04/28,02:50,0.649,0.963,0.600,1.191,0.844,0.375,0.663,0.617,��,1.4,��
2021/04/28,03:00,0.648,0.965,0.601,1.189,0.845,0.375,0.661,0.617,��,2.3,��
2021/04/28,03:10,0.647,0.964,0.601,1.189,0.843,0.375,0.661,0.618,��,2.6,��
2021/04/28,03:20,0.647,0.965,0.599,1.189,0.844,0.376,0.662,0.618,��쐼,2.6,��
2021/04/28,03:30,0.646,0.962,0.600,1.191,0.845,0.375,0.662,0.617,��쐼,2.6,��
2021/04/28,03:40,0.645,0.965,0.601,1.187,0.843,0.376,0.661,0.618,�쐼,2.0,��
2021/04/28,03:50,0.647,0.963,0.600,1.192,0.843,0.375,0.662,0.619,�쐼,3.7,��
2021/04/28,04:00,0.647,0.964,0.601,1.188,0.843,0.375,0.661,0.617,�쐼,4.4,��
2021/04/28,04:10,0.647,0.965,0.600,1.190,0.845,0.377,0.661,0.618,��쐼,3.5,��
2021/04/28,04:20,0.647,0.964,0.600,1.190,0.843,0.377,0.662,0.617,��쐼,3.5,��
2021/04/28,04:30,0.647,0.964,0.600,1.189,0.843,0.377,0.661,0.618,��쐼,2.8,��
2021/04/28,04:40,0.646,0.964,0.603,1.189,0.844,0.377,0.663,0.618,��쐼,2.6,��
2021/04/28,04:50,0.645,0.962,0.599,1.189,0.842,0.376,0.662,0.617,��쐼,2.3,��
2021/04/28,05:00,0.645,0.964,0.601,1.189,0.844,0.376,0.661,0.617,�쐼,2.6,��
2021/04/28,05:10,0.647,0.964,0.600,1.189,0.844,0.376,0.663,0.616,�쐼,2.6,��
2021/04/28,05:20,0.644,0.963,0.600,1.190,0.841,0.375,0.662,0.617,�쐼,1.7,��
2021/04/28,05:30,0.646,0.964,0.603,1.190,0.843,0.377,0.663,0.617,�쐼,1.2,��
2021/04/28,05:40,0.647,0.963,0.600,1.191,0.843,0.375,0.662,0.617,-,CALM,��
2021/04/28,05:50,0.647,0.963,0.601,1.191,0.844,0.376,0.662,0.619,���쐼,0.8,��
2021/04/28,06:00,0.645,0.963,0.601,1.189,0.845,0.375,0.664,0.618,���쐼,0.6,��
2021/04/28,06:10,0.647,0.963,0.602,1.190,0.842,0.376,0.664,0.617,��,1.9,��
2021/04/28,06:20,0.648,0.965,0.601,1.189,0.844,0.376,0.662,0.619,��쐼,2.3,��
2021/04/28,06:30,0.647,0.966,0.601,1.188,0.844,0.376,0.664,0.617,��쐼,2.6,��
2021/04/28,06:40,0.648,0.963,0.602,1.191,0.845,0.376,0.665,0.617,��,2.3,��
2021/04/28,06:50,0.649,0.965,0.602,1.190,0.845,0.378,0.663,0.620,��,1.7,��
2021/04/28,07:00,0.647,0.964,0.602,1.189,0.845,0.378,0.664,0.619,��쐼,1.7,��
2021/04/28,07:10,0.648,0.965,0.602,1.190,0.846,0.377,0.665,0.618,�쐼,1.1,��
2021/04/28,07:20,0.649,0.966,0.602,1.190,0.845,0.376,0.664,0.618,���쐼,1.2,��
2021/04/28,07:30,0.649,0.966,0.602,1.192,0.845,0.376,0.664,0.618,-,CALM,��
2021/04/28,07:40,0.648,0.966,0.603,1.191,0.843,0.376,0.666,0.618,��쐼,0.6,��
2021/04/28,07:50,0.650,0.966,0.602,1.192,0.845,0.375,0.664,0.619,��쓌,1.1,��
2021/04/28,08:00,0.651,0.965,0.602,1.193,0.844,0.376,0.666,0.620,��쓌,0.6,��
2021/04/28,08:10,0.648,0.963,0.603,1.190,0.847,0.376,0.663,0.620,-,CALM,��
2021/04/28,08:20,0.648,0.963,0.602,1.193,0.845,0.376,0.664,0.619,�k��,0.8,��
2021/04/28,08:30,0.649,0.963,0.602,1.193,0.846,0.375,0.663,0.618,���k��,1.2,��
2021/04/28,08:40,0.648,0.961,0.601,1.193,0.844,0.374,0.663,0.617,���k��,2.0,��
2021/04/28,08:50,0.649,0.963,0.604,1.191,0.844,0.375,0.663,0.615,���k��,2.3,��
2021/04/28,09:00,0.649,0.963,0.599,1.192,0.844,0.375,0.662,0.616,���쓌,2.8,��
2021/04/28,09:10,0.648,0.964,0.600,1.192,0.844,0.376,0.663,0.617,��쓌,3.2,��
2021/04/28,09:20,0.647,0.965,0.600,1.192,0.844,0.376,0.664,0.616,��쓌,3.0,��
2021/04/28,09:30,0.649,0.963,0.601,1.193,0.846,0.376,0.664,0.616,��,3.1,��
2021/04/28,09:40,0.648,0.965,0.604,1.193,0.845,0.377,0.663,0.616,��쓌,3.1,��
2021/04/28,09:50,0.648,0.962,0.600,1.194,0.844,0.377,0.662,0.616,��,3.4,��
2021/04/28,10:00,0.646,0.961,0.601,1.191,0.844,0.376,0.662,0.616,��쓌,3.5,��
2021/04/28,10:10,0.648,0.964,0.599,1.191,0.845,0.374,0.663,0.616,��,2.2,��
2021/04/28,10:20,0.649,0.961,0.600,1.194,0.843,0.376,0.662,0.617,��,2.2,�L
2021/04/28,10:30,0.649,0.963,0.600,1.189,0.843,0.374,0.662,0.616,��,1.7,�L
2021/04/28,10:40,0.647,0.965,0.603,1.191,0.845,0.375,0.662,0.618,��쐼,1.7,�L
2021/04/28,10:50,0.647,0.962,0.602,1.190,0.842,0.376,0.662,0.617,�쓌,1.9,�L
2021/04/28,11:00,0.647,0.964,0.602,1.192,0.845,0.377,0.662,0.617,���쓌,1.5,�L
2021/04/28,11:10,0.647,0.962,0.603,1.191,0.844,0.375,0.663,0.617,�쓌,0.9,�L
2021/04/28,11:20,0.647,0.965,0.601,1.191,0.844,0.375,0.663,0.617,��,2.2,�L
2021/04/28,11:30,0.646,0.965,0.603,1.191,0.840,0.375,0.662,0.617,��쓌,3.4,�L
2021/04/28,11:40,0.648,0.964,0.601,1.192,0.844,0.377,0.663,0.618,��쓌,2.6,��
2021/04/28,11:50,0.648,0.964,0.602,1.192,0.844,0.375,0.663,0.615,�쓌,2.6,��
2021/04/28,12:00,0.648,0.963,0.603,1.194,0.842,0.376,0.663,0.617,��쓌,2.8,��
2021/04/28,12:10,0.649,0.963,0.601,1.194,0.844,0.376,0.664,0.617,��쓌,2.6,��
2021/04/28,12:20,0.648,0.961,0.603,1.194,0.845,0.376,0.662,0.616,��쓌,3.5,��
2021/04/28,12:30,0.649,0.965,0.603,1.191,0.844,0.376,0.662,0.616,��쓌,3.5,��
2021/04/28,12:40,0.648,0.964,0.604,1.191,0.838,0.375,0.663,0.617,��쓌,4.0,��
2021/04/28,12:50,0.647,0.964,0.603,1.192,0.844,0.376,0.663,0.617,��쓌,4.0,��
2021/04/28,13:00,0.647,0.966,0.602,1.192,0.844,0.377,0.663,0.617,��쓌,3.6,��
2021/04/28,13:10,0.648,0.963,0.605,1.189,0.843,0.378,0.663,0.618,��,3.5,��
2021/04/28,13:20,0.651,0.967,0.604,1.193,0.845,0.377,0.664,0.618,��,3.3,��
2021/04/28,13:30,0.650,0.963,0.605,1.192,0.844,0.377,0.665,0.619,��,2.2,��
2021/04/28,13:40,0.651,0.965,0.604,1.191,0.845,0.376,0.663,0.617,��,1.9,��
2021/04/28,13:50,0.652,0.964,0.603,1.192,0.846,0.377,0.666,0.618,��,1.9,��
2021/04/28,14:00,0.651,0.966,0.604,1.191,0.844,0.376,0.664,0.617,��쓌,2.2,��
2021/04/28,14:10,0.648,0.966,0.604,1.193,0.845,0.376,0.664,0.618,��쓌,1.7,��
2021/04/28,14:20,0.650,0.966,0.603,1.192,0.846,0.377,0.665,0.619,�쓌,2.5,��
2021/04/28,14:30,0.649,0.965,0.603,1.193,0.846,0.377,0.665,0.617,��쓌,3.7,��
2021/04/28,14:40,0.649,0.965,0.602,1.193,0.844,0.378,0.664,0.618,��쓌,4.4,��
2021/04/28,14:50,0.649,0.966,0.603,1.192,0.847,0.378,0.665,0.617,��,4.8,��
2021/04/28,15:00,0.649,0.965,0.602,1.190,0.845,0.377,0.665,0.618,��,5.3,��
2021/04/28,15:10,0.653,0.966,0.604,1.187,0.847,0.378,0.665,0.616,��쓌,5.2,��
2021/04/28,15:20,0.650,0.966,0.601,1.191,0.845,0.378,0.665,0.618,��,5.1,��
2021/04/28,15:30,0.650,0.968,0.604,1.190,0.846,0.378,0.665,0.616,��,5.5,��
2021/04/28,15:40,0.651,0.965,0.602,1.189,0.846,0.377,0.662,0.618,��,6.4,��
2021/04/28,15:50,0.649,0.965,0.600,1.191,0.845,0.377,0.666,0.619,��쓌,8.5,��
2021/04/28,16:00,0.648,0.967,0.603,1.189,0.846,0.377,0.664,0.617,��쓌,11.6,��
2021/04/28,16:10,0.649,0.965,0.604,1.191,0.846,0.378,0.664,0.617,��쓌,9.7,��
2021/04/28,16:20,0.649,0.966,0.602,1.190,0.845,0.376,0.664,0.617,��쓌,10.2,��
2021/04/28,16:30,0.649,0.966,0.601,1.191,0.846,0.377,0.665,0.618,��쓌,9.7,��
2021/04/28,16:40,0.650,0.967,0.602,1.191,0.846,0.377,0.665,0.617,��,7.8,��
2021/04/28,16:50,0.649,0.966,0.602,1.191,0.847,0.376,0.663,0.616,��,8.3,��
2021/04/28,17:00,0.651,0.967,0.604,1.190,0.846,0.377,0.665,0.618,��,6.0,��
2021/04/28,17:10,0.647,0.966,0.601,1.192,0.846,0.378,0.665,0.618,��,6.6,��
2021/04/28,17:20,0.649,0.967,0.603,1.191,0.846,0.376,0.663,0.618,��,7.0,��
2021/04/28,17:30,0.649,0.967,0.604,1.194,0.843,0.377,0.664,0.619,��,8.1,��
2021/04/28,17:40,0.650,0.966,0.602,1.193,0.845,0.377,0.664,0.619,��,7.8,��
2021/04/28,17:50,0.649,0.966,0.602,1.191,0.846,0.378,0.663,0.618,��,9.4,��
2021/04/28,18:00,0.649,0.964,0.601,1.193,0.844,0.377,0.664,0.617,��,8.0,��
2021/04/28,18:10,0.648,0.967,0.601,1.193,0.844,0.376,0.664,0.617,��,7.8,��
2021/04/28,18:20,0.649,0.968,0.603,1.194,0.847,0.377,0.663,0.618,��,7.4,��
2021/04/28,18:30,0.650,0.969,0.601,1.193,0.849,0.377,0.662,0.617,��,8.2,��
2021/04/28,18:40,0.650,0.970,0.603,1.195,0.846,0.377,0.663,0.620,��,6.6,��
2021/04/28,18:50,0.649,0.966,0.603,1.194,0.845,0.377,0.664,0.620,��,6.6,��
2021/04/28,19:00,0.651,0.968,0.603,1.193,0.847,0.378,0.666,0.620,��,6.8,��
2021/04/28,19:10,0.652,0.971,0.605,1.192,0.847,0.379,0.665,0.620,��,6.4,��
2021/04/28,19:20,0.651,0.971,0.604,1.195,0.847,0.380,0.665,0.620,��,6.2,��
2021/04/28,19:30,0.650,0.971,0.605,1.195,0.847,0.379,0.665,0.620,��,6.5,��
2021/04/28,19:40,0.653,0.969,0.604,1.192,0.848,0.378,0.665,0.620,��,5.7,��
2021/04/28,19:50,0.651,0.970,0.606,1.196,0.847,0.378,0.666,0.622,��,6.6,��
2021/04/28,20:00,0.652,0.969,0.604,1.192,0.849,0.379,0.666,0.619,��,6.3,��
2021/04/28,20:10,0.651,0.970,0.605,1.193,0.847,0.377,0.665,0.620,��,5.4,��
2021/04/28,20:20,0.650,0.971,0.604,1.193,0.849,0.379,0.666,0.621,��,5.8,��
2021/04/28,20:30,0.651,0.970,0.605,1.194,0.848,0.379,0.667,0.620,��,6.2,��
2021/04/28,20:40,0.654,0.971,0.605,1.195,0.848,0.377,0.666,0.620,��쐼,6.7,��
2021/04/28,20:50,0.654,0.968,0.605,1.192,0.847,0.378,0.664,0.620,��,7.1,��
2021/04/28,21:00,0.651,0.971,0.604,1.193,0.848,0.377,0.666,0.620,��,5.9,��
2021/04/28,21:10,0.651,0.967,0.605,1.194,0.848,0.378,0.665,0.619,��쐼,5.3,��
2021/04/28,21:20,0.652,0.967,0.605,1.192,0.848,0.378,0.666,0.620,��쐼,5.1,��
2021/04/28,21:30,0.650,0.969,0.604,1.194,0.849,0.379,0.664,0.620,��쐼,4.7,��
2021/04/28,21:40,0.652,0.969,0.605,1.193,0.850,0.379,0.665,0.619,��,4.7,��
2021/04/28,21:50,0.651,0.969,0.604,1.194,0.848,0.378,0.664,0.620,��,4.4,��
2021/04/28,22:00,0.652,0.969,0.603,1.193,0.849,0.379,0.664,0.619,��,4.5,��
2021/04/28,22:10,0.651,0.969,0.602,1.192,0.849,0.379,0.666,0.620,��,4.6,�L
2021/04/28,22:20,0.650,0.969,0.603,1.192,0.849,0.379,0.666,0.621,��쐼,4.1,��
2021/04/28,22:30,0.650,0.971,0.605,1.192,0.849,0.379,0.664,0.621,��쐼,3.2,��
2021/04/28,22:40,0.653,0.971,0.605,1.194,0.848,0.378,0.666,0.619,��쐼,3.2,�L
2021/04/28,22:50,0.653,0.969,0.604,1.193,0.847,0.379,0.664,0.621,��쐼,3.8,�L
2021/04/28,23:00,0.651,0.970,0.605,1.192,0.850,0.380,0.665,0.620,��쐼,3.2,�L
2021/04/28,23:10,0.652,0.968,0.603,1.194,0.849,0.379,0.665,0.620,��쐼,2.6,�L
2021/04/28,23:20,0.651,0.968,0.604,1.194,0.848,0.379,0.664,0.620,�쐼,3.3,�L
2021/04/28,23:30,0.651,0.966,0.605,1.194,0.848,0.379,0.665,0.619,�쐼,3.5,�L
2021/04/28,23:40,0.652,0.969,0.605,1.194,0.848,0.379,0.664,0.619,��쐼,3.2,�L
2021/04/28,23:50,0.652,0.964,0.605,1.193,0.848,0.379,0.664,0.620,��쐼,3.4,�L
